EHI
0 0 0 0 0 0 0 0 0 0 0 0 0 0 0 0 0 0 0 0 1 2 2 1 2 6 9 8 9 10 10 8 4 2 2 2 2 1 1 0 0 0 0
0 0 0 0 0 0 0 0 0 0 0 0 0 0 0 0 0 0 0 0 1 2 3 2 2 6 9 8 7 9 10 8 6 4 3 3 2 2 1 0 0 0 0
0 0 0 0 0 0 0 0 0 0 0 0 0 0 0 0 0 0 0 0 1 2 4 5 5 7 9 9 8 9 9 9 7 6 5 4 4 3 2 1 0 0 0
0 0 0 0 0 0 0 0 0 0 0 0 0 0 0 0 0 0 0 0 0 1 4 6 6 6 7 9 9 9 8 8 7 6 6 5 5 4 3 2 1 0 0
0 0 0 0 0 0 0 0 0 0 0 0 0 0 0 0 0 0 0 0 0 0 1 3 5 5 5 7 8 7 6 6 5 5 5 5 5 4 3 2 1 0 0
0 0 0 0 0 0 0 0 0 0 0 0 0 0 0 0 0 0 0 0 0 0 0 1 3 4 4 4 4 4 3 3 3 3 4 4 4 4 4 2 1 0 0
0 0 0 0 0 0 0 0 0 0 0 0 0 0 0 0 0 0 0 0 0 0 0 1 3 4 3 2 1 1 1 2 2 2 3 3 4 4 3 3 1 0 0
1 1 1 1 1 0 0 0 0 0 0 0 0 0 0 0 0 0 0 0 0 0 0 1 2 2 2 1 0 0 0 1 1 1 1 3 4 3 3 2 1 0 0
2 2 2 2 1 1 1 1 0 1 1 0 0 0 0 0 0 0 0 0 0 0 0 0 1 1 1 0 0 0 0 0 0 0 0 1 2 2 1 1 1 0 0
1 2 1 1 1 2 2 2 2 2 2 1 1 0 0 0 0 0 0 0 0 0 0 0 0 0 0 0 0 0 0 0 0 0 0 0 1 1 0 0 0 1 1
0 0 1 1 1 2 3 3 3 3 3 3 2 1 1 0 0 0 0 0 0 0 0 0 0 0 0 0 0 0 0 0 0 0 0 0 0 0 1 1 1 2 3
0 0 1 2 2 3 3 3 3 3 3 3 3 3 2 1 0 0 0 0 0 0 0 0 0 0 0 0 0 0 0 0 0 0 0 0 0 1 2 1 1 1 1
0 0 1 1 2 2 3 3 3 3 3 3 3 3 3 2 1 0 0 0 0 0 0 0 0 0 0 0 0 0 0 0 0 0 0 0 1 2 2 1 0 0 0
0 0 1 1 1 1 2 3 3 3 3 3 3 3 3 3 2 1 0 0 0 0 0 0 0 0 0 0 0 0 0 0 0 0 0 0 1 2 2 1 0 0 0
1 0 0 0 0 1 2 2 3 3 3 3 3 3 3 3 3 2 1 0 0 0 0 0 0 0 0 0 0 0 0 0 0 0 0 0 0 1 1 0 0 0 0
2 1 1 0 0 1 1 1 2 3 3 3 3 3 3 3 3 3 1 0 0 0 0 0 0 0 0 0 0 0 0 0 0 0 0 0 0 0 0 0 0 0 0
4 3 2 1 0 0 0 1 2 3 3 3 3 3 3 3 3 3 2 1 0 0 0 0 0 0 0 0 0 0 0 0 0 0 0 0 0 0 0 0 0 0 0
3 3 3 2 1 0 0 1 2 3 3 3 3 3 3 3 3 3 3 2 1 0 0 0 0 0 0 0 0 0 0 1 1 0 0 0 0 0 0 0 0 0 0
2 3 3 2 1 0 0 0 1 2 2 3 3 3 3 3 3 3 3 3 2 1 0 0 0 0 0 0 0 0 0 1 1 0 0 0 0 0 0 0 0 0 0
3 3 3 3 1 0 0 0 0 1 1 1 2 3 3 3 3 3 3 3 2 1 0 0 0 0 0 0 0 0 0 0 0 0 0 0 0 0 0 0 0 0 0
6 5 4 4 3 2 1 0 0 1 0 0 1 2 2 2 2 2 2 2 1 0 0 0 0 0 0 0 0 0 0 0 0 0 0 0 0 0 0 0 0 0 0
9 8 7 6 5 3 1 0 0 1 0 0 0 1 1 1 1 1 0 0 0 0 0 0 0 0 1 1 1 1 1 1 2 1 1 1 1 0 0 0 0 0 0
11 10 9 8 6 3 1 0 0 1 0 0 0 0 0 0 0 0 0 0 0 0 0 0 0 1 2 2 2 2 2 2 2 1 1 2 1 0 0 0 0 0 0
11 10 9 8 5 2 0 0 0 0 0 0 0 0 0 0 0 0 0 1 0 0 0 0 0 1 2 2 3 3 3 2 1 1 0 1 1 0 0 0 0 0 0
8 7 7 6 5 3 1 0 0 0 0 0 0 0 0 0 0 0 0 0 0 0 0 0 0 0 1 1 1 2 1 1 0 0 0 0 0 0 0 0 0 0 0
5 5 4 4 5 4 1 0 0 0 0 0 0 0 0 0 0 0 0 0 0 0 0 0 0 0 0 0 0 1 0 0 0 0 0 0 0 0 0 0 0 0 0
Wind_Speed
2 2 2 2 2 1 1 1 1 2 2 2 2 2 2 2 2 2 2 5 5 6 7 7 8 9 8 8 9 9 8 8 8 7 7 7 6 6 6 7 7 7 6
2 2 2 2 2 2 1 1 1 2 2 2 2 2 2 2 2 2 2 3 5 5 5 5 6 7 8 8 9 9 9 8 7 7 7 7 7 6 6 6 7 7 6
2 2 2 2 2 2 2 2 2 2 2 2 2 1 1 2 2 2 2 2 2 4 4 4 5 5 7 7 7 7 7 8 7 7 7 7 7 7 7 7 7 6 6
2 2 2 2 2 2 2 2 2 2 2 2 2 1 1 1 3 3 2 2 2 2 3 4 5 4 5 6 7 7 6 7 7 7 7 7 7 6 6 6 7 7 7
3 2 2 2 2 2 2 2 2 2 2 2 2 2 2 2 2 3 2 2 2 2 2 3 4 4 5 6 6 6 6 7 7 6 6 6 7 7 7 7 7 6 7
3 2 2 2 2 2 3 3 2 2 2 2 3 3 2 2 2 2 2 2 2 2 2 2 2 2 4 4 5 5 5 6 7 7 7 7 7 7 7 7 7 7 7
2 3 2 2 2 2 2 2 2 3 3 2 3 2 3 3 3 2 2 2 2 1 2 2 1 1 1 3 3 4 4 5 5 6 6 6 6 7 7 7 7 7 7
2 2 2 2 2 2 3 3 2 2 2 3 2 2 2 2 2 2 2 1 1 1 1 1 1 1 1 1 2 4 4 5 5 5 6 6 6 6 7 7 7 7 7
3 2 2 2 2 2 1 2 2 2 2 2 2 2 2 0 1 1 2 1 1 1 1 1 1 1 1 1 1 2 3 4 5 5 5 5 5 6 6 6 6 6 6
2 2 2 2 2 2 2 1 2 1 2 1 1 2 1 1 1 1 2 2 2 2 1 1 1 1 1 1 1 1 1 2 2 3 3 4 4 5 5 6 6 6 6
2 2 2 2 2 1 1 2 2 1 1 1 1 1 1 2 1 1 1 1 2 2 1 1 1 1 0 1 1 1 1 1 2 2 2 3 3 4 5 5 6 6 6
2 2 2 2 1 1 1 1 1 1 1 1 1 1 1 1 1 1 1 1 1 1 1 1 1 0 0 0 0 1 1 1 1 2 2 2 3 4 4 5 5 5 6
1 1 1 1 1 1 1 1 1 1 0 1 1 0 0 1 1 2 2 1 0 1 1 1 1 1 0 0 0 0 0 0 0 1 2 2 3 3 4 4 4 4 5
1 1 1 1 1 1 1 1 1 1 1 0 0 1 0 0 1 1 2 2 1 1 1 1 1 0 0 0 0 0 0 0 0 0 1 2 2 2 3 4 4 4 4
1 0 0 1 1 1 1 1 1 1 1 1 1 0 0 0 1 1 1 2 2 1 1 1 1 1 0 0 1 1 1 0 0 0 1 1 1 1 2 3 3 3 4
0 1 1 1 1 1 1 1 1 1 1 1 1 1 1 0 0 1 1 1 2 2 1 1 1 1 1 0 1 1 1 0 0 1 1 1 2 1 1 2 2 3 3
1 1 1 0 0 1 1 1 1 1 1 1 1 1 1 1 1 0 1 1 1 2 2 1 1 1 1 1 2 1 1 1 0 1 1 2 2 2 2 3 3 2 3
0 1 1 1 0 1 1 1 1 1 1 0 1 1 1 1 1 0 1 1 1 1 2 1 1 1 1 1 2 1 1 0 0 1 2 2 1 2 2 2 2 2 2
0 0 0 0 0 0 0 0 0 0 0 0 0 0 0 1 0 1 1 1 1 1 1 2 1 1 1 1 1 1 1 1 1 0 0 1 1 1 2 2 2 2 2
0 0 0 0 1 1 0 0 0 0 0 1 1 1 1 1 2 1 1 1 2 2 2 1 0 0 0 1 1 1 1 1 1 1 1 1 1 1 2 2 2 2 3
0 0 0 1 1 0 1 1 1 0 1 1 1 1 1 1 2 2 2 2 3 2 2 1 1 0 0 0 1 1 1 1 1 1 2 2 1 1 2 2 3 3 3
1 1 1 1 1 1 2 1 0 0 1 1 1 1 1 1 0 1 2 3 4 3 3 2 2 2 2 2 2 1 1 0 1 1 1 2 1 2 2 2 3 4 4
1 1 1 1 1 2 2 2 2 1 1 1 1 1 1 0 1 1 1 1 1 2 4 4 3 3 3 3 2 2 2 2 2 1 1 2 1 2 2 2 3 3 4
1 0 1 1 1 2 3 3 2 1 0 0 1 0 1 1 0 1 1 1 0 1 2 2 3 4 4 4 4 3 3 2 2 1 1 2 2 2 2 2 3 4 4
0 0 0 0 1 2 2 2 2 1 1 1 1 1 0 1 1 2 2 1 0 1 1 1 2 3 3 3 3 2 2 1 2 1 1 2 2 2 2 2 2 3 3
0 0 1 1 1 2 2 2 2 1 0 1 1 2 2 1 0 1 1 1 1 2 1 2 2 2 2 2 2 3 3 3 2 2 2 2 2 1 2 2 2 2 2
Wind_Direction
42 48 58 55 46 48 56 70 105 122 128 130 144 152 167 180 180 171 181 187 187 191 193 195 194 188 187 188 191 189 188 189 187 184 188 188 189 191 191 189 186 181 181
61 54 49 47 39 33 32 54 89 115 123 132 142 149 158 170 166 158 163 175 173 179 184 191 189 181 183 188 193 193 190 186 181 181 186 187 189 191 191 191 189 187 184
73 66 56 43 27 27 34 48 57 81 95 100 107 120 134 144 146 143 138 141 160 164 165 170 171 172 180 185 186 183 181 178 177 180 185 187 188 189 192 191 189 182 182
85 84 71 44 23 38 37 46 58 70 72 74 82 76 75 98 120 123 119 117 123 144 151 154 156 164 174 179 176 174 174 174 174 176 180 182 182 181 180 180 182 181 181
71 84 73 48 40 50 42 48 56 72 77 69 75 74 67 83 103 114 109 105 109 120 139 153 151 158 171 172 168 169 175 178 176 177 183 184 184 180 176 176 177 179 183
68 75 67 48 49 57 46 41 50 54 67 68 73 60 54 67 80 90 99 97 104 119 122 126 130 157 164 162 161 168 177 181 183 187 191 191 189 182 181 184 186 189 192
63 73 61 50 53 58 52 50 61 56 46 49 69 53 45 59 67 68 74 85 86 93 99 114 124 123 152 168 162 162 173 179 183 186 188 191 190 188 189 193 193 194 196
54 80 75 67 61 62 50 48 61 65 52 40 65 80 43 30 35 48 67 90 75 69 81 97 117 127 135 172 168 176 185 188 198 199 195 194 193 193 191 193 197 202 200
54 62 62 69 63 71 64 49 65 82 79 41 47 90 104 109 358 20 48 55 55 68 54 61 78 92 119 122 145 164 174 187 200 201 201 197 196 196 196 196 194 195 195
50 52 56 61 61 63 67 53 64 76 94 76 34 49 89 130 117 42 31 43 47 51 35 44 56 93 122 137 124 108 186 200 193 200 201 201 203 203 199 198 200 197 197
40 47 54 55 55 52 54 53 57 75 91 102 79 68 72 62 80 116 75 25 32 26 26 37 62 58 88 118 139 124 134 186 195 196 197 198 201 202 194 196 202 201 199
22 31 57 56 55 51 43 44 56 69 85 101 91 90 125 131 134 131 135 83 13 349 6 25 44 26 32 60 155 133 152 132 186 202 204 205 211 204 196 196 202 205 203
0 350 47 59 48 32 38 45 63 46 65 135 154 158 146 153 145 141 130 130 97 353 356 3 14 23 36 14 317 9 128 110 115 195 207 207 207 207 207 208 208 207 205
248 326 43 78 63 55 50 48 49 16 34 73 120 137 128 183 138 137 142 141 121 39 344 312 354 10 334 296 320 247 202 40 28 318 208 205 195 192 199 209 215 208 204
197 105 83 59 48 53 58 73 49 16 30 16 4 76 139 245 152 154 150 160 155 166 245 292 300 321 305 239 311 300 269 338 333 162 132 143 154 175 191 198 202 199 197
109 115 90 58 36 33 46 63 43 12 44 13 7 31 11 343 124 167 169 166 162 169 200 265 270 311 329 4 34 340 303 326 203 151 127 132 134 136 155 165 173 176 180
164 143 150 119 49 16 41 70 51 46 57 14 354 25 350 17 87 102 147 148 150 160 183 262 310 327 354 348 341 323 287 271 228 114 124 125 126 139 147 148 148 160 175
201 176 154 146 155 27 31 77 52 48 87 348 326 357 345 68 82 96 128 142 150 167 170 193 299 322 309 306 317 317 333 14 267 95 113 112 130 154 157 155 162 167 169
359 351 120 154 226 235 71 102 115 28 359 316 317 213 261 119 110 119 139 140 145 134 147 166 225 280 301 340 351 341 349 333 304 309 199 172 185 184 183 192 191 184 189
152 345 323 227 225 212 187 181 133 63 326 331 326 268 225 179 195 179 164 160 145 129 134 146 171 288 315 341 352 330 332 335 306 316 315 286 255 232 218 215 214 207 202
216 75 39 358 334 266 216 188 187 199 268 302 323 314 271 173 171 168 166 170 158 152 151 152 162 177 282 288 280 271 273 306 301 308 290 279 270 265 249 242 236 231 217
39 55 32 6 347 325 345 330 248 197 251 267 292 309 322 327 61 125 145 156 161 169 179 179 191 208 236 240 250 243 232 283 291 282 262 272 260 259 255 248 245 230 218
54 42 11 12 343 326 353 1 18 54 255 250 262 293 318 21 73 100 111 125 157 177 182 190 204 221 226 221 219 230 225 230 249 267 235 260 263 259 260 259 251 229 217
140 312 342 337 343 337 6 20 31 51 51 294 260 244 238 284 240 134 122 89 64 256 230 216 218 232 233 228 219 223 230 232 252 253 217 252 268 266 275 272 262 235 223
176 266 292 304 303 305 344 21 58 85 46 358 357 13 231 254 260 123 120 120 1 321 311 265 246 251 252 240 214 197 204 225 259 255 206 234 254 266 264 259 257 244 238
205 355 334 321 317 321 349 34 72 110 62 337 345 353 349 335 338 109 142 165 235 287 308 326 333 324 299 280 231 209 203 205 228 252 215 218 234 254 265 238 243 251 246